Regional Weather Roundup
Issued by NWS

Home | Current Version | Previous Version | Graphics & Text | Print | Product List | Glossary On
Versions: 1 2 3 4 5 6 7 8 9 10 11 12 13 14 15 16 17 18 19 20 21 22 23 24 25 26 27 28 29 30 31 32 33 34 35 36 37 38 39 40 41 42 43 44 45 46 47 48 49 50
000
ASUS45 KBOU 280407
RWRCO

WEATHER ROUNDUP FOR COLORADO
NATIONAL WEATHER SERVICE DENVER/BOULDER CO
1000 PM MDT SUN JUL 27 2014

NOTE: "FAIR" INDICATES FEW OR NO CLOUDS BELOW 12000 FEET WITH NO
SIGNIFICANT WEATHER AND/OR OBSTRUCTIONS TO VISIBILITY.

COZ001>005-013-030-031-280500-
...NORTHWEST COLORADO...

CITY           SKY/WX    TMP DP  RH WIND       PRES   REMARKS
CRAIG          PTCLDY    61  40  45 CALM      30.29R
HAYDEN         MOCLDY    73  39  29 E3        30.32R
MEEKER         MOCLDY    70  45  40 CALM      30.32R
MOUNT WERNER   NOT AVBL
STEAMBOAT SPGS PTCLDY    72  44  37 E5        30.36R
WALDEN         PTCLDY    61  45  55 E6        30.48R
$$

COZ006>008-011-280500-
...WEST CENTRAL VALLEYS...

CITY           SKY/WX    TMP DP  RH WIND       PRES   REMARKS
GRAND JUNCTION MOCLDY    80  48  32 S9        30.21R
MONTROSE       CLOUDY    73  54  51 S5        30.32R
EAGLE          MOCLDY    72  50  46 E6        30.37R
RIFLE          MOCLDY    78  46  32 SE17      30.25R
DELTA          CLOUDY    77  55  46 NE7       30.26S
NUCLA          CLOUDY    73  48  40 SE8       30.35R
$$

COZ017>023-064>068-280500-
...SOUTHWEST COLORADO...

CITY           SKY/WX    TMP DP  RH WIND       PRES   REMARKS
DURANGO        CLOUDY    64  55  72 NW10      30.47R
CORTEZ         LGT RAIN  66  61  84 S10       30.42R
PAGOSA SPRINGS CLOUDY    63  52  69 E3        30.53R
TELLURIDE      CLOUDY    64  45  48 S13G21    30.57R
WOLF CREEK PAS NOT AVBL
$$

COZ009-010-012-014-032>034-037-058>063-280500-
...CENTRAL COLORADO...

CITY           SKY/WX    TMP DP  RH WIND       PRES   REMARKS
ASPEN          MOCLDY    67  45  45 SE13      30.46R
BUENA VISTA    CLOUDY    56  52  89 CALM      30.55R
COPPER MTN     MOCLDY    54  43  66 S21       30.81R
BERTHOUD PASS  FAIR      41  30  65 SE13      30.86R
COTTONWOOD PAS CLOUDY    57  50  77 SW3       30.67R
GUNNISON       MOCLDY    63  46  55 N8        30.51S
KREMMLING      MOCLDY    66  43  42 SW6       30.45R
LEADVILLE      MOCLDY    49  48  97 CALM      30.66S
MONARCH PASS   MOCLDY    50  41  71 W6        30.91S
SALIDA         MOCLDY   N/A N/A N/A W7        30.59S
SUNLIGHT       MOCLDY    59  43  55 CALM      30.71R
WILKERSON PASS NOT AVBL
$$

COZ069>075-280500-
...SAN LUIS VALLEY/SANGRE DE CRISTO MOUNTAINS...

CITY           SKY/WX    TMP DP  RH WIND       PRES   REMARKS
ALAMOSA        CLOUDY    63  54  72 W6        30.47R
LA VETA PASS   CLOUDY    52  46  82 SW6       30.67S
SAGUACHE       MOCLDY    63  48  59 N5        30.52R
$$

COZ035-036-038>040-280500-
...NORTHERN COLORADO FRONT RANGE...

CITY           SKY/WX    TMP DP  RH WIND       PRES   REMARKS
DENVER INTL AP TSTM      69  59  70 S17       30.36R
DMNS CITY PARK   N/A     68  55  62 SE7       30.38R
AURORA         MOCLDY    68  59  71 SE12      30.40R
FRONT RANGE AP NOT AVBL
ERIE MUNI ARPT MOCLDY    70  60  70 SE7       30.34R
BOULDER MUN AP MOCLDY    70  59  68 CALM      30.34R
CENTENNIAL     MOCLDY    69  55  60 S7        30.40R
BROOMFIELD     MOCLDY    72  52  49 VRB6      30.38R
FORT COLLINS   MOCLDY    70  57  64 S8        30.32R
LONGMONT       MOCLDY    71  60  68 S5        30.34R
$$

COZ041-046-047-076>085-087-088-280500-
...PIKES PEAK/PALMER DIVIDE AND SOUTHERN FOOTHILLS...

CITY           SKY/WX    TMP DP  RH WIND       PRES   REMARKS
COLO. SPRINGS  TSTM      60  59  96 SE6       30.46R
A. F. ACADEMY  LGT RAIN  61  61 100 S5        30.47R
ELLICOTT       TSTM      62  56  80 CALM      30.46F
FALCON         RAIN      58  57  97 S8        30.50S
FORT CARSON    CLOUDY    61  59  94 NW1       30.42F
LIMON          LGT RAIN  68  61  78 S13       30.40R
MONUMENT HILL  RAIN      57  54  88 SE20      30.49R
TRINIDAD       CLOUDY    66  58  75 CALM      30.41R
$$

COZ042>045-048>051-090-091-280500-
...NORTHEAST COLORADO...

CITY           SKY/WX    TMP DP  RH WIND       PRES   REMARKS
GREELEY ARPT   CLOUDY    70  55  60 SE9       30.33R
AKRON          MOCLDY    72  47  40 E15       30.35R
BURLINGTON     CLOUDY    70  50  49 S7        30.32S
WRAY             N/A     73  48  41 E6        30.30S
STERLING       MOCLDY    77  52  41 SE6       30.30R
HOLYOKE        MOCLDY    68  57  68 SE5       30.31R
FORT MORGAN    CLOUDY    73  48  40 E6        30.34R
$$

COZ086-089-092>099-280500-
...SOUTHEAST COLORADO...

CITY           SKY/WX    TMP DP  RH WIND       PRES   REMARKS
PUEBLO         TSTM      67  64  90 NW7       30.34R
LA JUNTA       CLOUDY    76  63  64 SW8       30.34R
LAMAR          CLOUDY    75  61  61 E10       30.27S
SPRINGFIELD      N/A     70  60  70 SE13      30.32S
$$


USA.gov is the U.S. government's official web portal to all federal, state and local government web resources and services.